Weather History for KAFF - February, 2013

Change the Weather History Date:

Wednesday, February 27, 2013

  Actual Average Record
Temperature  
Mean Temperature 20 °F -  
Max Temperature 33 °F 39 °F 69 °F (2006)
Min Temperature 7 °F 18 °F 3 °F (2015)
Degree Days  
Heating Degree Days 45    
Moisture  
Dew Point 11 °F    
Average Humidity 69    
Maximum Humidity 86    
Minimum Humidity 33    
Precipitation  
Precipitation 0.00 in - - ()
Sea Level Pressure  
Sea Level Pressure 30.18 in    
Wind  
Wind Speed 13 mph (NNW)    
Max Wind Speed 20 mph    
Max Gust Speed 28 mph    
Visibility 8 miles    
Events Snow    
Averages and records for this station are not official NWS values.
T = Trace of Precipitation, MM = Missing Value Source: NWS Daily Summary

Daily Weather History Graph

Daily Weather History Graph

Search for Another Location

Airport or City:

Trip Planner

Search our weather history database for the weather conditions in past years. The results will help you decide how hot, cold, wet, or windy it might be!

Date:

Astronomy

Feb. 27, 2013 Rise Set
Actual Time 6:34 AM MST 5:50 PM MST
Civil Twilight 6:07 AM MST 6:17 PM MST
Nautical Twilight 5:36 AM MST 6:47 PM MST
Astronomical Twilight 5:05 AM MST 7:18 PM MST
Moon 8:12 PM MST (2/27) 7:12 AM MST (2/27)
Length of Visible Light 12h 09m
Length of Day
11h 16m
Waning Gibbous, 96% of the Moon is Illuminated
Feb 27
Waning Gibbous
Mar 4
Last Quarter
Mar 11
New
Mar 19
First Quarter
Mar 27
Full

Hourly Weather History & Observations

Time (MST) Temp. Windchill Dew Point Humidity Pressure Visibility Wind Dir Wind Speed Gust Speed Precip Events Conditions
12:13 AM 21.2 °F 8.3 °F 17.6 °F 86% 30.05 in 1.5 mi NNW 13.8 mph 23.0 mph N/A Snow Light Snow
12:18 AM 21.2 °F 7.8 °F 17.6 °F 86% 30.05 in 1.2 mi NNW 15.0 mph - N/A Snow Light Snow
12:23 AM 21.2 °F 6.4 °F 17.6 °F 86% 30.05 in 1.5 mi NNW 18.4 mph - N/A Snow Light Snow
12:33 AM 21.2 °F 7.8 °F 17.6 °F 86% 30.05 in 2.0 mi NNW 15.0 mph - N/A Snow Light Snow
12:38 AM 21.2 °F 7.3 °F 17.6 °F 86% 30.05 in 2.5 mi NNW 16.1 mph 23.0 mph N/A Snow Light Snow
12:43 AM 21.2 °F 7.8 °F 17.6 °F 86% 30.05 in 2.5 mi NNW 15.0 mph 23.0 mph N/A Snow Light Snow
12:48 AM 21.2 °F 7.8 °F 17.6 °F 86% 30.05 in 3.0 mi NNW 15.0 mph 19.6 mph N/A Snow Light Snow
12:53 AM 21.2 °F 8.3 °F 15.8 °F 80% 30.05 in 3.0 mi NNW 13.8 mph - N/A Snow Light Snow
12:58 AM 20.8 °F 7.3 °F 16.5 °F 83% 30.18 in 3.0 mi NNW 15.0 mph - 0.00 in Snow Light Snow
1:03 AM 21.2 °F 7.3 °F 15.8 °F 80% 30.05 in 4.0 mi North 16.1 mph - N/A Snow Light Snow
1:13 AM 21.2 °F 8.3 °F 15.8 °F 80% 30.06 in 4.0 mi NNW 13.8 mph 20.7 mph N/A Snow Light Snow
1:18 AM 21.2 °F 8.3 °F 15.8 °F 80% 30.06 in 6.0 mi NNW 13.8 mph 24.2 mph N/A Snow Light Snow
1:28 AM 21.2 °F 6.4 °F 14.0 °F 74% 30.06 in 9.0 mi NNW 18.4 mph 27.6 mph N/A   Mostly Cloudy
1:32 AM 21.2 °F 6.4 °F 14.0 °F 74% 30.06 in 8.0 mi NNW 18.4 mph 27.6 mph N/A Snow Light Snow
1:35 AM 21.2 °F 6.8 °F 14.0 °F 74% 30.07 in 8.0 mi NNW 17.3 mph 27.6 mph N/A   Mostly Cloudy
1:36 AM 21.2 °F 6.0 °F 14.0 °F 74% 30.06 in 8.0 mi NNW 19.6 mph 27.6 mph N/A Snow Light Snow
1:58 AM 20.7 °F 7.1 °F 13.5 °F 74% 30.22 in 10.0 mi NNW 15.0 mph 23.0 mph 0.00 in Snow Light Snow
2:03 AM 21.2 °F 7.3 °F 14.0 °F 74% 30.07 in 10.0 mi NNW 16.1 mph 21.9 mph N/A Snow Light Snow
2:53 AM 19.4 °F 7.2 °F 14.0 °F 80% 30.08 in 7.0 mi NNW 11.5 mph - N/A Snow Light Snow
2:58 AM 19.8 °F 8.3 °F 14.9 °F 81% 30.23 in 8.0 mi NNW 10.4 mph - 0.00 in Snow Light Snow
3:08 AM 19.4 °F 7.2 °F 14.0 °F 80% 30.08 in 10.0 mi NNW 11.5 mph - N/A Snow Light Snow
3:14 AM 19.4 °F 6.6 °F 14.0 °F 80% 30.08 in 10.0 mi NW 12.7 mph - N/A   Scattered Clouds
3:24 AM 19.4 °F 6.6 °F 12.2 °F 74% 30.08 in 10.0 mi NNW 12.7 mph - N/A   Light Freezing Rain
3:26 AM 19.4 °F 7.2 °F 12.2 °F 74% 30.08 in 10.0 mi NNW 11.5 mph - N/A   Clear
3:36 AM 19.4 °F 7.9 °F 12.2 °F 74% 30.09 in 10.0 mi NW 10.4 mph - N/A   Partly Cloudy
3:44 AM 19.4 °F 9.5 °F 10.4 °F 68% 30.10 in 10.0 mi NW 8.1 mph - N/A   Partly Cloudy
3:58 AM 18.9 °F 8.0 °F 10.6 °F 70% 30.26 in 10.0 mi NNW 9.2 mph - 0.00 in   Mostly Cloudy
4:08 AM 19.4 °F 7.9 °F 10.4 °F 68% 30.11 in 10.0 mi NNW 10.4 mph - N/A   Mostly Cloudy
4:09 AM 19.4 °F 7.9 °F 10.4 °F 68% 30.11 in 10.0 mi NNW 10.4 mph - N/A   Light Freezing Rain
4:19 AM 19.4 °F 7.9 °F 10.4 °F 68% 30.11 in 10.0 mi NNW 10.4 mph - N/A   Light Freezing Rain
4:24 AM 19.4 °F 8.6 °F 10.4 °F 68% 30.12 in 10.0 mi NNW 9.2 mph - N/A   Scattered Clouds
4:48 AM 19.4 °F 8.6 °F 10.4 °F 68% 30.12 in 10.0 mi NNW 9.2 mph - N/A   Scattered Clouds
4:58 AM 19.4 °F 9.5 °F 9.1 °F 64% 30.30 in 10.0 mi NNW 8.1 mph - 0.00 in   Scattered Clouds
5:58 AM 9.7 °F -3.3 °F 3.9 °F 77% 30.35 in 10.0 mi North 9.2 mph - N/A   Clear
6:58 AM 7.7 °F -6.6 °F 2.3 °F 79% 30.38 in 10.0 mi North 10.4 mph - N/A   Clear
7:58 AM 13.3 °F 4.2 °F 5.4 °F 71% 30.36 in 10.0 mi North 5.8 mph - N/A   Clear
8:58 AM 22.6 °F 10.7 °F 7.5 °F 52% 30.34 in 10.0 mi North 12.7 mph 17.3 mph N/A   Clear
9:58 AM 25.3 °F 16.7 °F 7.0 °F 46% 30.32 in 10.0 mi NNE 8.1 mph - N/A   Clear
10:58 AM 28.2 °F - 7.3 °F 41% 30.30 in 10.0 mi Variable 1.2 mph - N/A   Clear
11:58 AM 32.2 °F 27.7 °F 7.2 °F 35% 30.28 in 10.0 mi ESE 4.6 mph - N/A   Clear
12:58 PM 31.8 °F 27.3 °F 7.0 °F 35% 30.27 in 10.0 mi SSE 4.6 mph - N/A   Clear
1:58 PM 33.4 °F 24.3 °F 7.2 °F 33% 30.25 in 10.0 mi East 12.7 mph - N/A   Clear
2:58 PM 30.9 °F 23.5 °F 11.5 °F 44% 30.24 in 10.0 mi ESE 8.1 mph - N/A   Scattered Clouds
3:58 PM 29.5 °F 19.9 °F 12.0 °F 48% 30.27 in 10.0 mi East 11.5 mph - N/A   Mostly Cloudy
4:58 PM 28.2 °F 22.0 °F 9.9 °F 46% 30.28 in 10.0 mi NNE 5.8 mph - N/A   Partly Cloudy
5:58 PM 23.7 °F 14.7 °F 8.8 °F 53% 30.37 in 10.0 mi NNE 8.1 mph - N/A   Scattered Clouds
6:58 PM 17.2 °F 6.0 °F 7.2 °F 65% 30.43 in 10.0 mi North 9.2 mph - N/A   Clear
7:58 PM 14.0 °F 2.0 °F 5.9 °F 70% 30.43 in 10.0 mi North 9.2 mph - N/A   Clear
8:58 PM 11.5 °F 2.1 °F 4.8 °F 75% 30.39 in 10.0 mi NNW 5.8 mph - N/A   Clear
9:58 PM 11.7 °F 2.3 °F 3.7 °F 71% 30.36 in 10.0 mi NE 5.8 mph - N/A   Clear
10:58 PM 14.0 °F 6.5 °F 1.4 °F 57% 30.34 in 10.0 mi NNE 4.6 mph - N/A   Clear
11:58 PM 11.8 °F -0.7 °F 0.5 °F 60% 30.32 in 10.0 mi NE 9.2 mph - N/A   Clear